CZ-6A DEB

Satellite information

Favourite Embed

Satellite Type and Status

DEBRISIN ORBIT

Key statistics

Satellite CZ-6A DEB at a glance.

Uptime

495

Days in orbit

Revolutions

≈ 14.3

Per day

Orbit

LEO

Low Earth Orbit

Inclination

89.1

Latest

Satellite identification and parameters

Extended collection of information and parameters for CZ-6A DEB.

Object identification

Identified? True

Debris? True

Object name: CZ-6A DEB

International designator: 2024-140SE

Object number (NORAD): 61269

Object ID (CCSDS): 61269

Country: PEOPLES REPUBLIC OF CHINA (PRC)

Current information (Y/N): Y

RCS size: SMALL

Orbital parameters

Period: 100.562 minutes

Inclination: 89.0601 deg

SMA: 7163.371 km

Apoapsis: 808.81 km

Periapsis: 761.662 km

RAAN: 298.4569 deg

Eccentricy: 0.00329089

Argument of periapsis: 47.2147 deg

Mean anomaly: 313.1809 deg

Mean motion: 14.31945898 rev/day

Mean motion (dot): 0.00014771 rev/day2

B* drag term: 0.0054673249 1/REarth

Two-line elements (TLE)

Creation date: Dec. 14, 2025, 3:07 a.m.

Reference frame: TEME

Reference center: EARTH

Epoch: Dec. 13, 2025, 8:14 a.m. UTC

TLE line 0: 0 CZ-6A DEB

TLE line 1: 1 61269U 24140SE 25347.34351337 .00014771 00000-0 54673-2 0 9992

TLE line 2: 2 61269 89.0601 298.4569 0032909 47.2147 313.1809 14.31945898 67641

Live tracking on map

Real-time ground track for satellite CZ-6A DEB.

In-orbit conjunctions

A list of the most updated potential collisions computed for object CZ-6A DEB.

Target Orbit TCA Probability of collision Miss distance Type
CZ-4C DEB SSO 2025-02-10 14:31:08 0.0001458424 293.0 (m) DEBRIS
NOAA 16 DEB SSO 2025-01-15 00:24:56 0.0001369853 533.0 (m) DEBRIS
COSMOS 2251 DEB LEO 2024-10-29 11:02:04 0.0001539211 702.0 (m) DEBRIS
NOAA 16 DEB SSO 2024-10-24 16:10:23 0.0001014399 306.0 (m) DEBRIS
FENGYUN 1C DEB SSO 2024-10-05 03:15:04 0.0001319218 187.0 (m) DEBRIS

Associated space launch

18 Low Earth Orbit communication satellites with Ku, Q and V band payloads for the G60 constellation operated by Shanghai Spacecom Satellite Technology (SSST) with funding backed by the Shanghai local government. Initial constellation will consist of 1296 satellites by 2027 with long term plans to expand it to 12000 satellites.

CZ-6A DEB was lifted into orbit during the mission ‘Long March 6A | G60 Polar Group 01’, on board a Long March 6A space rocket.

The launch took place on Aug. 6, 2024, 6:42 a.m. from Launch Complex 9A.

For more information about the launch, click the button.

Launch to space Long March 6A | G60 Polar Group 01
Long March 6A | G60 Polar Group 01

Agency: N/A

Status: Launch Successful

Launch date: Aug. 6, 2024, 6:42 a.m. UTC

Rocket: Long March 6A

Launch pad: Launch Complex 9A

Location: Taiyuan Satellite Launch Center, People's Republic of China

...

Latest news about this satellite

News about space launch
Brightness of first Chinese broadband constellation satellites alarms astronomers

The first satellites of a Chinese broadband constellation are significantly brighter than those of Western systems, posing a new challenge for astronomers.

News about space launch
Chinese rocket stage breaks up into cloud of more than 700 pieces of space debris

HELSINKI — A Chinese Long March 6A rocket’s upper stage has fragmented into a cloud of over 700 pieces of space debris, adding to concerns about long-term orbital safety. China […]

News about space launch
China's Thousand Sails Megaconstellation Kicks Off with Dangerous Debris Field

China's Thousand Sails Megaconstellation Kicks Off with Dangerous Debris Field


Newsletter sign-up

Weekly statistics, charts and insights to help you stay on top of the space industry.